Voltar ao catálogo

STARLINK-37186

AtivoComunicaçõesSSO
NORAD 68617·PAYLOAD·🇺🇸 United States

Lançado Apr 5, 2026 de Vandenberg Space Force Base

Loading…

Próximas Passagens (próximas 24 horas)

TLE

AtualizadoSource: CelesTrak SupGP

Época: Sep 15, 2026, 04:19 UTC

1 68617C 26073R   26258.18034722 -.00054298  00000+0 -16857-2 0  2582
2 68617  97.2847  96.2172 0001756  92.2924 198.7532 15.33463141    18

Acompanhe STARLINK-37186 em tempo real com AllMySat

Download on the App Store